Flag for U.S.A. Weather past 2 weeks in Chicago, Illinois, U.S.A.

Now
73 °F

Passing clouds.


Feels Like: 73 °F
Forecast: 70 / 75 °F
Wind: 5 mph from Northeast

Location: Chicago Midway Airport

Current Time: Aug 27, 2014 at 4:05:30 AM

Latest Report: Aug 27, 2014 at 2:51 AM


Visibility: 10 mi

Pressure: 30.08 "Hg

Humidity: 79%

Dew point: 66 °F

Location of ChicagoLocation

Historic Weather in Chicago — Graph

°F

Chicago temperature yesterday

Maximum temperature yesterday: 85 °F (at 4:51 PM)
Minimum temperature yesterday: 72 °F (at 5:51 AM)
Average temperature yesterday: 77 °F

Past Weeks' High & Low Weather Summary

 TemperatureHumidityPressure
High91 °F (Aug 25, 11:51 AM)97% (Aug 21, 8:51 AM)30.11 "Hg (Aug 21, 8:51 AM)
Low55 °F (Aug 15, 5:51 AM)36% (Aug 15, 3:51 PM)29.66 "Hg (Aug 19, 3:51 PM)
Average75 °F74%29.93 "Hg
* Reported Aug 12 2:51 AM — Aug 27 2:51 AM, Chicago, Weather by CustomWeather, © 2014

Note: Actual official high and low records may vary slightly from our data, if they occured in-between our weather recording intervals... More about our weather records

Advertising

Chicago weather history for previous 24 hours

 ConditionsComfort  
Time TempWeatherWind HumidityBarometerVisibility
2:51 AM
Aug 27
73 °FPassing clouds.5 mph79%30.08 "Hg10 mi
1:51 AM73 °FPassing clouds.No wind84%30.08 "Hg10 mi
12:51 AM73 °FPartly cloudy.3 mph79%30.08 "Hg10 mi
11:51 PM
Aug 26
74 °FMostly cloudy.3 mph82%30.09 "Hg10 mi
10:51 PM73 °FPartly cloudy.6 mph84%30.08 "Hg10 mi
9:51 PM74 °FPassing clouds.7 mph82%30.06 "Hg10 mi
8:51 PM75 °FPassing clouds.7 mph82%30.05 "Hg10 mi
7:51 PM78 °FScattered clouds.7 mph71%30.02 "Hg10 mi
6:51 PM84 °FPartly sunny.No wind55%30.02 "Hg10 mi
5:51 PM85 °FPartly sunny.3 mph57%30.02 "Hg10 mi
4:51 PM85 °FPartly sunny.3 mph53%30.04 "Hg10 mi
3:51 PM84 °FScattered clouds.5 mph59%30.05 "Hg10 mi
2:51 PM81 °FBroken clouds.5 mph65%30.06 "Hg10 mi
1:51 PM78 °FBroken clouds.13 mph71%30.06 "Hg10 mi
12:51 PM75 °FPartly sunny.7 mph82%30.06 "Hg10 mi
11:51 AM74 °FMostly cloudy.5 mph82%30.11 "Hg10 mi
10:51 AM80 °FBroken clouds.5 mph79%30.06 "Hg10 mi
9:51 AM81 °FBroken clouds.12 mph74%30.06 "Hg10 mi
8:51 AM77 °FBroken clouds.8 mph82%30.05 "Hg10 mi
7:51 AM74 °FBroken clouds.5 mph82%30.05 "Hg10 mi
6:51 AM72 °FPassing clouds.7 mph81%30.03 "Hg10 mi
5:51 AM72 °FPassing clouds.7 mph84%30.02 "Hg10 mi
4:51 AM73 °FPassing clouds.5 mph81%30.01 "Hg10 mi
Weather by CustomWeather, © 2014

See weather overviewHow to use our weather pages